TV
NORAD ID: 25516
Int'l Code: 1998-063B
Perigee: 35,767.4 km
Apogee: 35,820.1 km
Inclination: 2.5 °
Period: 1,436.1 minutes
Semi major axis: 42164 km
Launch date: October 28, 1998
Source: (SES)
Comments: Broadband internet, business television; 16 Ku-band; CONUS
Two Line Element Set (TLE):
1 25516U 98063B 13143.36367591 -.00000226 00000-0 00000+0 0 2305
2 25516 002.5126 071.1061 0006243 015.7948 204.2381 01.00271766 53404
Source: AFSPC
NASA's NSSDC Master Catalog entry for AMC-5 (GE-5)